Orbital Elements at Epoch 2459000.5 (2020-May-31.0) TDB
Reference: JPL 14 (heliocentric ecliptic J2000)
Element | Value | Uncertainty (1-sigma) | Units |
e | .200104046894679 | 1.0389e-07 | |
a | 2.529443752767906 | 1.2042e-08 | au |
q | 2.023291821446584 | 2.6568e-07 | au |
i | 3.493522499738716 | 4.0075e-06 | deg |
node | 107.0347218463787 | 0.00013801 | deg |
peri | 264.5501239265689 | 0.00013854 | deg |
M | 154.2514098397401 | 1.1818e-05 | deg |
tp | 2458370.903060983309 (2018-Sep-09.40306098) | 4.7503e-05 | TDB |
period | 1469.386233043137 4.02 | 1.0493e-05 2.873e-08 | d yr |
n | .2450002537824454 | 1.7495e-09 | deg/d |
Q | 3.035595684089228 | 1.4451e-08 | au |
|
| | Orbit Determination Parameters
Additional Information
|